Date,TemperatureHighF,TemperatureAvgF,TemperatureLowF,DewpointHighF,DewpointAvgF,DewpointLowF,HumidityHigh,HumidityAvg,HumidityLow,PressureMaxIn,PressureMinIn,WindSpeedMaxMPH,WindSpeedAvgMPH,GustSpeedMaxMPH,PrecipitationSumIn
2014-1-1,70.3,58.1,37.7,23.9,20.3,15.6,47,25,15,30.11,30.02,21,2,21,0.00
2014-1-2,69.7,61.2,54.7,29.1,26.7,23.3,33,27,21,30.07,29.95,15,2,15,0.00
2014-1-3,72.7,53.7,38.8,36.9,29.4,24.9,61,42,21,30.02,29.87,10,0,10,0.00
2014-1-4,68.7,53.9,43.4,32.6,28.9,23.9,59,40,22,30.01,29.88,11,0,11,0.00
2014-1-5,64.3,56.9,50.1,25.4,17.0,8.0,32,22,15,30.16,29.96,19,4,19,0.00
2014-1-6,65.1,57.8,49.6,16.9,13.4,10.5,22,17,14,30.20,30.08,10,4,19,0.00
2014-1-7,65.4,51.3,38.1,25.3,18.1,11.6,44,28,15,30.13,30.01,1,0,18,0.00
2014-1-8,66.0,50.0,38.9,33.3,25.9,20.1,59,41,23,30.09,29.96,2,0,18,0.00
2014-1-9,62.6,44.4,34.4,38.5,30.0,22.9,76,58,36,30.08,29.92,6,0,18,0.00
2014-1-10,74.2,55.4,37.5,36.2,30.0,25.7,70,41,22,30.10,29.98,4,0,18,0.00
2014-1-11,73.6,55.9,38.6,41.3,32.3,25.8,65,44,22,30.15,29.96,4,1,18,0.00
2014-1-12,65.3,56.1,40.8,38.5,29.5,16.9,71,39,21,30.14,29.94,7,2,18,0.00
2014-1-13,67.4,58.9,47.7,26.1,19.9,15.6,34,22,17,30.28,30.12,19,4,19,0.00
2014-1-14,73.5,64.7,48.5,20.9,17.7,14.6,31,17,11,30.28,30.14,34,4,34,0.00
2014-1-15,72.2,65.7,60.4,25.8,22.3,18.3,24,19,17,30.20,30.05,20,4,20,0.00
2014-1-16,74.3,67.2,62.0,19.5,15.1,11.2,18,13,9,30.09,29.98,24,3,24,0.00
2014-1-17,74.3,64.4,49.8,18.9,15.6,11.4,23,15,11,30.09,29.98,18,3,18,0.00
2014-1-18,75.2,62.8,46.0,21.2,14.9,9.0,26,16,10,30.06,29.97,20,2,20,0.00
2014-1-19,73.0,59.0,40.8,23.7,16.9,12.9,36,20,13,30.10,29.98,15,0,15,0.00
2014-1-20,74.0,57.3,38.2,26.8,19.4,14.6,43,25,13,30.16,30.06,17,1,17,0.00
2014-1-21,70.6,61.7,52.2,23.2,19.1,15.3,31,19,15,30.14,30.02,21,2,21,0.00
2014-1-22,76.0,58.2,43.7,31.4,24.0,18.5,50,29,14,30.03,29.82,9,0,9,0.00
2014-1-23,68.0,56.4,37.8,27.3,20.6,17.8,50,27,16,30.05,29.82,21,4,21,0.00
2014-1-24,65.0,60.4,57.9,24.9,22.4,19.7,26,23,21,30.19,30.04,20,4,20,0.00
2014-1-25,69.8,59.8,45.0,38.0,28.4,22.0,58,32,21,30.16,30.02,15,1,15,0.00
2014-1-26,65.6,53.8,41.9,43.8,36.4,31.0,73,54,35,30.12,29.96,11,0,11,0.00
2014-1-27,67.5,53.1,41.2,45.0,41.2,35.3,88,66,42,30.05,29.92,12,0,12,0.01
2014-1-28,76.0,56.1,40.3,38.0,31.6,23.8,79,44,17,30.10,29.97,7,0,7,0.00
2014-1-29,77.0,59.2,42.4,37.8,30.9,23.3,54,37,18,30.08,29.86,15,0,15,0.00
2014-1-30,62.7,53.9,49.2,48.7,40.8,30.8,94,64,37,29.87,29.79,15,1,15,0.00
2014-1-31,54.0,48.5,42.6,48.4,44.0,37.1,95,85,56,29.92,29.80,17,2,17,0.01
2014-2-1,57.1,43.9,32.6,40.0,28.8,17.3,92,60,27,30.05,29.89,14,0,14,0.02
2014-2-2,57.3,43.3,28.1,38.1,26.9,18.6,79,56,26,30.10,29.90,9,0,14,0.00
2014-2-3,54.4,45.7,36.4,40.0,36.9,32.6,89,73,49,29.95,29.82,15,1,15,0.01
2014-2-4,54.2,46.3,41.2,41.1,38.9,35.4,91,77,51,30.04,29.93,12,1,12,0.00
2014-2-5,57.5,47.9,40.0,41.6,38.8,34.5,88,72,45,30.09,29.94,12,0,12,0.00
2014-2-6,48.9,45.5,41.5,43.9,41.9,37.9,95,87,76,30.04,29.94,12,1,14,0.15
2014-2-7,56.2,48.6,45.1,47.3,44.6,42.3,96,87,67,30.16,29.98,13,1,13,0.22
2014-2-8,62.4,51.2,44.9,46.9,44.0,42.2,92,78,51,30.24,30.11,13,1,13,0.00
2014-2-9,57.8,48.9,39.7,50.5,44.9,37.8,95,86,66,30.16,30.05,16,1,16,0.01
2014-2-10,64.8,51.8,43.2,50.2,46.2,39.6,95,83,56,30.10,29.94,16,1,16,0.00
2014-2-11,74.6,54.4,37.4,42.8,36.0,31.6,92,57,21,30.09,29.97,10,0,10,0.00
2014-2-12,79.8,59.9,43.1,36.6,32.5,27.0,72,40,17,30.16,29.97,12,0,12,0.00
2014-2-13,82.5,63.4,47.8,40.1,35.8,32.3,60,39,17,30.05,29.91,15,2,15,0.00
2014-2-14,84.2,63.9,49.6,37.8,32.2,25.1,52,34,12,30.02,29.90,12,1,12,0.00
2014-2-15,82.5,61.1,47.2,36.8,30.8,26.7,50,34,15,30.00,29.89,16,2,16,0.00
2014-2-16,77.3,62.3,49.2,39.1,31.6,25.7,49,33,19,30.01,29.87,14,2,14,0.00
2014-2-17,74.8,58.1,44.7,40.9,34.8,30.3,67,44,24,30.02,29.88,14,1,14,0.00
2014-2-18,72.1,56.6,39.8,43.8,32.4,23.8,72,45,18,30.01,29.89,11,1,11,0.00
2014-2-19,69.3,55.0,43.3,48.1,41.9,35.6,83,63,38,29.95,29.81,17,2,17,0.00
2014-2-20,69.5,59.5,42.3,39.3,27.6,22.4,83,33,20,30.03,29.86,28,3,28,0.00
2014-2-21,75.3,58.2,43.6,30.2,26.3,21.3,53,31,18,29.98,29.83,12,1,12,0.00
2014-2-22,72.5,56.0,41.4,33.8,30.8,27.3,59,41,21,29.91,29.81,11,0,11,0.00
2014-2-23,75.3,57.2,41.7,35.0,30.3,27.5,60,39,19,29.94,29.84,12,0,12,0.00
2014-2-24,73.7,57.2,41.1,39.7,32.5,27.9,64,43,20,29.95,29.86,10,1,18,0.02
2014-2-25,72.0,55.9,41.5,46.3,37.7,31.6,89,55,25,29.98,29.88,13,1,13,0.02
2014-2-26,58.9,51.9,44.7,46.5,45.0,41.6,92,78,61,30.05,29.92,16,1,16,0.00
2014-2-27,64.8,55.1,49.8,53.9,47.8,43.4,95,78,48,30.00,29.76,17,1,17,0.17
2014-2-28,57.2,51.9,45.6,54.4,48.5,40.6,95,89,61,29.83,29.58,26,2,26,1.92
2014-3-1,49.2,46.6,44.7,47.6,44.6,43.1,95,93,87,29.94,29.72,14,0,14,2.71
2014-3-2,54.6,48.4,43.1,48.9,46.2,41.5,96,92,78,30.11,29.94,11,0,11,0.14
2014-3-3,66.7,54.2,44.3,50.7,46.2,42.6,95,77,42,30.09,29.95,12,0,12,0.01
2014-3-4,60.9,51.9,44.2,51.8,47.5,42.3,94,85,71,30.02,29.90,14,1,14,0.01
2014-3-5,75.8,60.2,42.7,50.7,43.6,37.8,93,60,28,30.06,29.93,12,0,12,0.00
2014-3-6,72.2,60.0,47.1,52.0,47.9,43.1,88,67,40,29.99,29.87,11,1,16,0.00
2014-3-7,72.8,60.8,49.4,52.0,40.9,25.8,95,55,24,29.93,29.82,12,1,12,0.00
2014-3-8,71.7,64.1,58.4,31.0,26.5,22.3,30,24,19,30.09,29.90,22,3,22,0.00
2014-3-9,73.6,64.9,53.0,35.6,27.2,22.2,51,25,17,30.12,29.99,19,2,19,0.00
2014-3-10,77.6,60.5,44.4,40.1,32.6,27.5,66,40,18,30.05,29.91,16,1,16,0.00
2014-3-11,68.6,57.5,42.5,37.1,30.9,21.0,74,40,23,29.97,29.89,22,2,22,0.00
2014-3-12,66.2,59.3,52.7,27.3,22.3,16.0,30,24,21,30.00,29.87,19,4,21,0.00
2014-3-13,70.3,56.8,47.8,45.1,34.6,23.9,84,46,28,29.96,29.78,14,1,14,0.00
2014-3-14,74.4,58.1,42.9,47.6,42.1,34.6,90,60,24,30.06,29.90,14,1,14,0.00
2014-3-15,79.1,61.9,41.8,45.7,32.8,23.0,86,43,14,30.17,30.02,18,1,18,0.00
2014-3-16,84.5,64.6,44.2,34.9,29.5,24.7,55,30,14,30.22,30.02,18,1,18,0.00
2014-3-17,75.9,60.5,47.7,48.8,36.7,27.7,86,45,22,30.05,29.70,21,3,21,0.00
2014-3-18,67.7,57.4,44.3,47.5,26.7,12.9,96,41,16,29.89,29.71,23,3,23,0.01
2014-3-19,72.6,61.0,45.8,33.6,18.4,11.6,56,21,14,30.03,29.87,20,2,20,0.00
2014-3-20,74.0,57.2,41.0,38.9,32.0,26.8,70,43,18,30.02,29.85,12,1,12,0.00
2014-3-21,67.5,53.3,41.1,48.9,43.5,32.3,93,71,39,29.97,29.85,16,2,16,0.00
2014-3-22,65.0,53.8,48.5,48.7,46.4,44.8,92,77,53,30.05,29.90,13,1,13,0.00
2014-3-23,73.7,57.8,42.4,52.3,48.0,39.8,93,73,39,30.07,29.93,15,1,15,0.00
2014-3-24,76.5,58.7,47.6,55.6,50.1,44.8,95,76,34,30.04,29.90,16,1,16,0.00
2014-3-25,63.3,54.8,48.8,52.4,49.9,47.3,95,84,66,29.93,29.81,16,2,16,0.00
2014-3-26,57.7,50.6,47.2,47.9,44.3,36.6,93,80,46,29.92,29.79,20,4,20,0.07
2014-3-27,59.0,50.7,45.6,44.9,43.5,39.5,93,77,50,30.04,29.90,19,2,19,0.01
2014-3-28,73.3,56.3,42.3,47.1,43.4,36.3,92,66,28,30.12,29.99,11,1,11,0.00
2014-3-29,77.8,61.0,44.5,48.4,43.1,36.8,87,57,23,30.09,29.87,16,1,16,0.00
2014-3-30,67.2,55.5,48.1,48.1,44.0,37.7,90,68,39,29.99,29.85,18,2,18,0.00
2014-3-31,66.1,51.3,39.8,43.2,38.8,27.5,88,65,28,29.98,29.87,16,2,16,0.00
2014-4-1,57.5,48.5,43.8,43.8,38.2,31.7,93,70,39,29.95,29.85,18,3,18,0.11
2014-4-2,53.5,43.2,39.7,41.2,38.8,35.6,93,85,51,30.04,29.86,13,2,13,0.33
2014-4-3,65.3,50.0,35.4,44.5,38.6,32.7,94,69,33,30.11,29.98,12,0,12,0.01
2014-4-4,61.4,49.8,41.3,43.8,40.1,29.9,90,71,35,30.01,29.86,14,1,14,0.00
2014-4-5,65.5,50.7,39.8,45.8,41.6,36.6,92,73,44,30.02,29.86,13,1,13,0.00
2014-4-6,79.0,59.2,38.6,45.2,37.2,31.4,92,52,21,30.07,29.94,11,0,11,0.00
2014-4-7,86.4,65.4,43.9,44.0,37.2,32.1,72,42,15,30.06,29.97,16,1,16,0.00
2014-4-8,89.2,68.8,47.7,47.6,36.6,26.8,72,37,11,30.08,29.93,11,0,11,0.00
2014-4-9,88.3,68.4,49.2,45.8,31.7,18.7,58,32,9,30.00,29.87,15,1,15,0.00
2014-4-10,87.1,67.0,44.3,37.5,27.9,15.7,51,28,8,29.94,29.82,14,1,14,0.00
2014-4-11,83.0,67.7,50.4,39.4,30.5,19.5,54,28,12,29.87,29.73,16,1,16,0.00
2014-4-12,68.5,54.3,46.2,48.1,44.0,34.6,92,70,33,29.88,29.75,20,2,20,0.00
2014-4-13,68.5,54.7,46.8,49.3,46.4,44.0,92,76,49,29.98,29.84,14,2,14,0.00
2014-4-14,79.3,65.0,44.1,47.6,29.4,18.9,91,32,15,30.02,29.88,22,3,22,0.00
2014-4-15,82.5,66.0,48.5,44.4,36.5,31.3,57,37,18,29.97,29.72,16,1,16,0.00
2014-4-16,80.7,62.7,44.1,47.1,40.0,34.3,70,46,27,29.78,29.68,16,1,16,0.00
2014-4-17,77.7,63.4,47.1,53.6,44.9,38.7,77,54,30,29.81,29.72,17,2,17,0.00
2014-4-18,72.0,63.1,54.9,52.1,49.3,43.9,89,63,37,29.87,29.76,11,1,11,0.00
2014-4-19,78.0,62.5,45.4,53.6,49.4,42.8,92,66,35,29.95,29.84,15,2,15,0.00
2014-4-20,84.2,66.9,46.5,53.1,48.7,42.4,89,57,25,29.98,29.90,15,2,15,0.00
2014-4-21,86.1,69.0,50.6,51.6,46.6,38.6,79,49,24,29.96,29.83,15,2,15,0.00
2014-4-22,71.4,59.2,49.8,51.5,47.2,35.8,90,67,29,29.88,29.77,17,2,18,0.00
2014-4-23,74.6,59.1,49.2,48.2,45.2,40.7,92,64,31,29.90,29.79,12,1,12,0.00
2014-4-24,79.7,62.6,42.6,46.5,41.6,36.9,82,51,26,29.92,29.80,16,2,16,0.00
2014-4-25,68.8,57.9,47.6,50.6,46.8,40.6,89,68,40,29.85,29.68,18,3,18,0.13
2014-4-26,57.8,48.9,42.4,46.6,40.3,36.5,93,74,51,29.95,29.62,26,4,26,0.65
2014-4-27,64.8,52.3,43.8,48.2,44.5,39.3,91,76,54,29.98,29.88,14,2,14,0.00
2014-4-28,78.8,63.5,46.3,47.6,40.3,30.9,86,49,23,29.96,29.83,15,1,15,0.00
2014-4-29,77.5,70.4,63.0,30.6,24.7,20.5,25,18,13,30.01,29.89,26,5,26,0.00
2014-4-30,77.3,68.9,58.5,24.0,20.2,16.3,24,16,11,29.99,29.87,33,7,33,0.00
2014-5-1,83.6,72.3,55.6,30.3,22.7,16.3,36,16,11,30.00,29.87,27,6,27,0.00
2014-5-2,94.8,73.0,50.3,40.6,31.4,26.1,50,25,11,29.96,29.80,17,1,17,0.00
2014-5-3,91.8,73.5,55.9,41.1,33.3,28.5,41,25,12,29.86,29.75,15,2,15,0.00
2014-5-4,87.0,68.6,52.3,44.1,34.1,26.4,48,30,16,29.90,29.79,16,2,16,0.00
2014-5-5,74.8,61.1,50.0,48.9,36.8,23.2,87,44,20,29.91,29.81,19,2,19,0.00
2014-5-6,59.5,51.1,45.5,48.6,43.6,39.5,90,77,53,29.82,29.73,19,2,19,0.10
2014-5-7,64.5,52.5,45.4,47.8,45.2,41.9,91,78,50,29.95,29.81,16,2,16,0.00
2014-5-8,72.5,58.0,48.3,49.4,47.1,43.5,92,70,36,30.00,29.89,15,1,15,0.00
2014-5-9,74.8,60.5,48.7,51.6,48.4,44.9,90,67,37,29.99,29.86,17,2,17,0.00
2014-5-10,71.0,57.4,50.3,53.4,50.0,47.2,94,78,48,29.88,29.71,18,3,18,0.00
2014-5-11,76.3,60.4,45.0,48.4,31.3,18.4,91,44,12,29.93,29.71,15,1,15,0.00
2014-5-12,81.8,67.4,46.8,31.7,26.2,20.8,42,23,13,30.00,29.86,23,2,23,0.00
2014-5-13,80.8,71.5,52.1,31.0,25.1,17.3,35,19,10,30.08,29.92,29,5,29,0.00
2014-5-14,86.0,76.8,68.4,29.5,23.3,19.1,20,14,11,30.00,29.90,28,6,28,0.00
2014-5-15,93.6,77.6,56.3,35.1,29.7,22.8,32,19,10,29.97,29.84,17,1,17,0.00
2014-5-16,94.8,77.5,59.0,39.4,32.8,26.8,34,21,10,29.93,29.77,19,2,19,0.00
2014-5-17,90.5,74.5,61.0,46.0,38.3,32.4,51,28,17,29.83,29.71,17,2,17,0.00
2014-5-18,82.2,67.4,55.4,50.4,45.0,38.5,72,47,23,29.80,29.71,19,2,19,0.00
2014-5-19,76.0,61.3,53.1,52.4,50.0,46.6,90,69,36,29.86,29.77,18,3,18,0.00
2014-5-20,65.6,56.4,50.7,50.2,46.0,42.3,92,70,47,29.94,29.82,17,3,17,0.00
2014-5-21,69.8,56.8,47.6,49.3,46.4,43.9,89,70,44,29.94,29.84,15,1,15,0.00
2014-5-22,71.1,58.9,51.6,53.1,50.7,48.1,93,76,49,29.93,29.83,16,2,16,0.00
2014-5-23,76.0,61.7,53.5,54.5,52.4,50.5,91,74,46,29.95,29.83,17,2,17,0.00
2014-5-24,76.2,61.9,54.9,57.0,54.2,52.3,92,78,48,29.94,29.80,13,1,13,0.00
2014-5-25,88.3,70.2,54.5,58.5,54.9,51.3,92,63,29,29.89,29.74,15,2,15,0.00
2014-5-26,91.8,75.1,56.9,58.6,54.6,46.4,87,53,27,29.86,29.77,15,2,15,0.00
2014-5-27,94.0,76.5,57.7,58.3,53.7,48.8,84,49,23,29.84,29.76,16,2,16,0.00
2014-5-28,89.0,73.5,60.8,56.6,52.7,47.5,80,51,24,29.80,29.68,15,1,15,0.00
2014-5-29,87.1,72.1,55.1,54.7,51.0,46.8,74,50,27,29.79,29.73,16,1,16,0.00
2014-5-30,93.0,74.4,54.0,51.7,45.6,34.9,70,41,14,29.78,29.69,17,1,17,0.00
2014-5-31,89.4,72.9,53.5,50.2,40.1,25.6,69,35,12,29.80,29.72,17,1,17,0.00
2014-6-1,90.3,72.6,52.4,43.9,35.8,26.0,57,30,11,29.79,29.69,15,1,15,0.00
2014-6-2,87.8,71.8,54.1,47.4,37.9,27.2,56,32,13,29.77,29.72,18,2,18,0.00
2014-6-3,89.9,71.8,50.9,47.5,38.9,25.8,67,35,12,29.82,29.69,15,1,15,0.00
2014-6-4,90.1,72.6,50.1,51.0,38.8,27.7,56,34,11,29.76,29.66,16,2,16,0.00
2014-6-5,90.6,72.7,53.2,48.0,43.0,37.3,67,38,18,29.75,29.65,18,1,18,0.00
2014-6-6,87.2,71.1,56.0,53.9,48.8,43.5,75,48,26,29.73,29.66,16,2,16,0.00
2014-6-7,85.4,69.7,54.5,56.6,53.9,49.2,89,61,32,29.72,29.64,14,2,14,0.00
2014-6-8,95.4,77.2,57.5,59.2,56.1,51.4,85,52,28,29.70,29.61,12,1,12,0.00
2014-6-9,97.3,80.5,62.0,60.8,52.5,40.7,69,41,21,29.67,29.56,13,1,15,0.00
2014-6-10,85.7,73.0,59.8,59.3,53.8,46.6,83,54,27,29.76,29.60,16,1,16,0.00
2014-6-11,88.1,70.2,53.8,56.2,47.6,38.1,94,53,20,29.80,29.73,16,2,16,0.00
2014-6-12,90.0,72.8,57.4,53.1,44.8,30.3,77,42,14,29.83,29.76,19,2,19,0.00
2014-6-13,86.9,70.6,55.1,52.4,44.5,38.7,75,43,21,29.82,29.73,22,2,22,0.00
2014-6-14,86.3,69.5,53.4,50.0,45.3,38.2,83,46,23,29.79,29.70,15,2,15,0.00
2014-6-15,85.1,68.3,54.2,51.3,46.5,39.0,75,49,22,29.78,29.70,17,2,17,0.00
2014-6-16,82.7,66.2,51.7,52.1,46.6,40.1,92,54,27,29.83,29.73,24,2,24,0.00
2014-6-17,78.7,65.9,54.2,51.2,44.3,32.7,80,48,29,29.85,29.76,17,2,17,0.00
2014-6-18,82.4,66.0,49.2,46.1,40.7,32.2,78,43,24,29.86,29.78,17,1,17,0.00
2014-6-19,92.8,76.9,51.7,52.8,47.2,40.3,70,38,22,29.85,29.77,16,2,16,0.00
2014-6-20,96.2,79.1,59.3,55.0,46.3,38.8,62,35,15,29.81,29.71,16,2,16,0.00
2014-6-21,91.5,76.5,61.2,53.0,44.4,35.9,64,34,21,29.77,29.71,19,2,19,0.00
2014-6-22,89.0,72.7,56.3,53.4,42.9,36.1,66,36,20,29.81,29.73,16,2,16,0.00
2014-6-23,89.2,72.6,57.4,57.5,52.0,41.3,82,53,20,29.82,29.74,15,2,15,0.00
2014-6-24,88.5,73.1,58.0,59.0,55.3,51.1,85,57,31,29.83,29.74,19,2,19,0.00
2014-6-25,87.8,73.6,59.3,58.5,55.9,52.4,85,57,32,29.78,29.71,15,2,15,0.00
2014-6-26,85.7,71.2,58.6,59.7,56.4,52.6,89,63,36,29.79,29.68,19,2,19,0.00
2014-6-27,84.0,68.4,58.0,60.8,57.2,54.9,92,70,42,29.80,29.69,16,2,16,0.00
2014-6-28,90.0,73.1,58.5,61.1,58.0,54.2,91,63,34,29.76,29.68,17,2,17,0.00
2014-6-29,98.2,79.3,61.7,65.2,60.2,56.0,83,56,31,29.76,29.66,19,1,19,0.00
2014-6-30,94.5,77.9,62.6,65.0,61.7,58.1,88,61,36,29.76,29.67,15,2,15,0.00
2014-7-1,95.7,78.5,62.1,64.1,60.8,57.3,85,59,30,29.75,29.64,17,2,17,0.00
2014-7-2,95.7,79.5,64.6,63.6,59.6,55.6,82,54,28,29.76,29.67,17,2,17,0.00
2014-7-3,99.8,82.6,62.3,60.4,53.7,46.6,72,41,18,29.80,29.68,17,2,17,0.00
2014-7-4,93.8,81.8,71.9,69.1,60.6,42.8,76,51,32,29.91,29.74,17,3,22,0.00
2014-7-5,94.4,81.4,70.5,61.3,53.3,44.0,56,39,30,29.94,29.82,18,1,18,0.00
2014-7-6,95.3,80.9,65.4,57.2,51.0,46.7,60,37,23,29.90,29.76,19,2,19,0.00
2014-7-7,96.7,80.9,67.5,53.7,47.4,32.1,54,33,20,29.81,29.69,14,1,14,0.00
2014-7-8,98.2,81.5,66.7,55.4,46.1,32.6,49,30,18,29.83,29.72,16,1,16,0.00
2014-7-9,96.5,79.9,64.4,65.5,54.0,37.0,63,43,24,29.85,29.72,17,1,17,0.00
2014-7-10,91.5,76.0,61.1,58.3,54.7,46.6,84,52,24,29.84,29.74,16,2,16,0.00
2014-7-11,88.7,74.8,60.1,58.6,55.2,50.6,82,54,30,29.88,29.80,17,2,17,0.00
2014-7-12,94.3,76.1,60.2,59.8,56.5,51.6,80,54,29,29.88,29.78,13,2,13,0.00
2014-7-13,102.0,83.9,66.4,62.3,59.1,53.4,71,47,25,29.82,29.69,17,2,17,0.00
2014-7-14,91.3,78.1,68.9,68.1,63.8,57.3,76,63,36,29.90,29.73,20,3,20,0.00
2014-7-15,92.3,76.4,63.9,66.0,62.0,59.3,87,63,38,29.92,29.81,16,2,16,0.00
2014-7-16,88.5,72.2,61.7,62.7,55.9,45.1,93,62,29,29.95,29.82,19,2,19,0.00
2014-7-17,83.0,67.8,57.9,59.1,55.8,50.6,93,69,34,29.94,29.82,15,2,15,0.00
2014-7-18,85.7,70.9,56.6,58.3,54.6,49.7,87,60,30,29.91,29.81,14,2,14,0.00
2014-7-19,85.8,71.3,60.9,62.2,58.7,55.3,84,66,39,29.89,29.78,14,1,14,0.00
2014-7-20,86.8,71.7,59.5,62.8,59.2,55.1,92,68,42,29.90,29.80,15,2,15,0.00
2014-7-21,90.2,74.0,59.0,61.3,57.9,50.8,90,61,29,29.94,29.85,17,2,17,0.00
2014-7-22,93.5,76.7,58.8,59.1,55.4,50.5,81,52,25,29.94,29.85,16,2,16,0.00
2014-7-23,99.3,80.8,61.4,55.6,50.7,46.6,65,39,19,29.91,29.75,16,2,16,0.00
2014-7-24,106.0,86.2,63.6,58.4,46.3,35.5,49,28,10,29.80,29.60,15,2,15,0.00
2014-7-25,96.7,81.4,70.8,67.4,53.0,31.5,50,39,13,29.81,29.69,14,1,14,0.00
2014-7-26,98.9,81.7,67.1,60.9,57.2,53.3,69,46,25,29.86,29.75,15,2,15,0.00
2014-7-27,93.5,78.8,65.8,68.3,61.2,52.6,69,56,37,29.91,29.80,22,2,22,0.02
2014-7-28,93.6,80.7,66.7,61.0,53.8,46.2,65,42,25,29.95,29.85,15,2,15,0.00
2014-7-29,95.0,80.4,66.2,58.9,52.8,45.0,59,40,26,29.93,29.80,15,1,15,0.07
2014-7-30,98.9,83.4,68.7,59.7,55.7,50.9,60,41,25,29.85,29.76,18,2,18,0.00
2014-7-31,100.0,82.1,69.6,61.6,58.0,55.6,63,46,26,29.81,29.70,16,1,16,0.00
2014-8-1,98.5,82.9,67.2,69.7,61.5,53.9,73,51,24,29.80,29.70,20,2,20,0.00
2014-8-2,81.2,73.0,67.4,67.4,63.7,54.2,92,74,52,29.96,29.73,19,1,19,0.15
2014-8-3,82.3,72.0,65.9,67.8,64.9,62.1,94,80,54,29.87,29.79,16,1,16,0.22
2014-8-4,86.8,74.2,65.7,67.0,59.3,48.6,95,65,31,29.91,29.81,16,2,16,0.01
2014-8-5,91.0,73.5,55.7,54.1,46.6,38.0,83,45,16,29.94,29.86,16,2,16,0.00
2014-8-6,88.0,71.8,55.9,55.8,49.5,41.6,74,49,24,29.94,29.82,14,2,14,0.00
2014-8-7,88.3,70.9,55.0,57.8,55.0,51.3,90,61,32,29.89,29.77,14,2,14,0.00
2014-8-8,92.7,74.9,55.9,62.1,57.4,50.5,84,59,28,29.83,29.74,15,1,15,0.00
2014-8-9,95.5,77.4,59.6,62.0,58.0,46.6,89,57,21,29.85,29.77,15,1,15,0.00
2014-8-10,95.7,79.1,60.6,61.0,55.2,47.0,80,48,22,29.88,29.78,15,2,15,0.00
2014-8-11,94.7,80.6,68.0,60.6,57.1,52.6,67,47,29,29.85,29.75,18,2,18,0.00
2014-8-12,94.3,79.1,66.7,67.4,61.4,52.2,77,57,34,29.86,29.73,14,1,14,0.00
2014-8-13,93.5,77.8,65.6,65.9,60.1,56.0,80,57,30,29.86,29.75,14,1,14,0.00
2014-8-14,94.9,77.7,60.6,58.4,51.3,41.1,74,44,17,29.86,29.78,15,2,15,0.00
2014-8-15,95.3,79.6,62.6,61.4,55.0,43.8,61,44,31,29.89,29.78,16,1,16,0.00
2014-8-16,97.0,80.4,62.1,60.4,56.0,49.8,73,46,28,29.91,29.79,20,2,20,0.00
2014-8-17,97.5,81.0,64.5,57.9,52.7,49.1,59,40,23,29.87,29.71,14,2,14,0.00
2014-8-18,94.5,79.7,67.1,70.2,59.0,46.3,86,52,28,29.78,29.64,22,2,22,0.00
2014-8-19,85.5,70.6,60.6,59.2,54.3,48.4,87,58,33,29.78,29.70,17,2,17,0.00
2014-8-20,80.9,67.6,60.1,62.8,57.2,53.7,90,71,41,29.89,29.74,14,1,14,0.16
2014-8-21,88.9,72.2,58.2,62.2,56.9,53.1,86,61,37,29.86,29.76,21,1,21,0.00
2014-8-22,86.8,73.5,61.2,61.9,51.5,33.2,82,50,19,29.87,29.79,15,2,15,0.00
2014-8-23,88.3,72.5,59.1,47.6,39.6,30.8,47,32,17,29.88,29.74,15,2,15,0.00
2014-8-24,90.0,72.3,55.9,51.0,43.0,37.4,55,37,19,29.83,29.71,14,1,14,0.00
2014-8-25,88.1,75.1,64.2,56.4,48.4,40.3,60,40,25,29.83,29.73,14,1,14,0.00
2014-8-26,89.7,77.6,64.0,58.2,52.3,45.1,70,44,26,29.88,29.79,16,2,16,0.00
2014-8-27,93.3,78.2,63.5,56.9,52.1,47.9,62,42,28,29.95,29.85,18,2,18,0.00
2014-8-28,97.4,79.9,62.9,57.7,53.1,49.1,64,42,23,29.94,29.77,16,2,16,0.00
2014-8-29,98.5,81.7,66.3,54.4,48.9,42.5,52,34,18,29.80,29.66,14,1,14,0.00
2014-8-30,99.5,81.1,62.1,55.7,46.6,37.1,51,33,12,29.74,29.63,18,1,18,0.00
2014-8-31,96.0,79.2,64.2,54.5,48.8,37.2,54,36,20,29.74,29.64,14,2,14,0.00
2014-9-1,94.2,77.8,60.7,52.7,44.1,28.9,66,34,15,29.73,29.66,16,2,16,0.00
2014-9-2,94.6,78.8,60.0,50.1,43.4,29.3,54,30,20,29.77,29.65,13,2,13,0.00
2014-9-3,91.8,75.0,59.0,59.1,51.5,43.3,70,46,25,29.69,29.57,11,1,15,0.00
2014-9-4,89.2,72.1,58.1,61.5,56.9,46.1,95,64,24,29.71,29.59,14,2,14,0.00
2014-9-5,92.0,76.9,60.6,70.1,62.8,50.0,78,63,43,29.78,29.67,16,2,18,0.59
2014-9-6,95.1,82.6,73.0,71.6,65.5,55.4,86,59,36,29.82,29.67,12,1,12,0.00
2014-9-7,89.3,78.9,71.3,71.4,65.1,57.8,86,63,48,29.78,29.63,16,1,16,0.07
2014-9-8,85.2,74.7,61.6,63.9,57.9,49.8,91,58,32,29.80,29.69,12,1,12,0.56
2014-9-9,88.4,76.2,64.3,58.8,52.0,45.5,64,44,30,29.84,29.72,16,2,16,0.00
2014-9-10,92.0,76.1,57.8,61.6,53.9,50.3,79,50,26,29.84,29.71,18,2,18,0.00
2014-9-11,97.0,79.0,61.1,58.0,53.3,48.0,73,45,21,29.80,29.66,14,1,14,0.00
2014-9-12,99.3,81.6,64.3,61.9,54.0,46.6,67,43,18,29.77,29.63,14,1,14,0.00
2014-9-13,101.2,82.8,64.8,58.0,52.7,48.0,61,39,19,29.73,29.60,14,1,14,0.00
2014-9-14,100.5,83.8,67.9,60.3,55.3,50.1,61,40,22,29.72,29.60,14,1,14,0.00
2014-9-15,100.7,85.7,69.1,62.3,56.5,53.6,65,40,22,29.74,29.62,14,1,16,0.00
2014-9-16,91.6,81.7,72.3,72.1,66.3,51.9,89,61,44,29.74,29.63,16,4,23,0.00
2014-9-17,93.2,81.6,71.6,67.6,64.4,57.6,75,57,39,29.68,29.55,12,1,15,0.00
2014-9-18,85.0,73.4,63.8,62.3,58.2,54.9,80,61,38,29.76,29.66,15,2,17,0.00
2014-9-19,83.4,70.3,62.7,61.8,59.6,57.7,90,71,43,29.83,29.70,12,1,14,0.00
2014-9-20,82.7,69.7,59.3,62.4,58.8,52.8,92,70,48,29.84,29.75,15,1,15,0.00
2014-9-21,84.6,69.5,59.0,61.6,55.3,44.6,94,66,25,29.91,29.80,12,1,12,0.00
2014-9-22,91.9,73.9,55.4,55.2,48.0,40.9,80,44,24,29.91,29.80,13,1,14,0.00
2014-9-23,93.8,76.1,55.7,53.1,46.2,38.8,60,38,19,29.91,29.78,13,1,19,0.00
2014-9-24,96.0,79.5,63.2,60.1,52.2,45.1,59,40,27,29.85,29.72,12,1,13,0.00
2014-9-25,94.0,79.4,66.9,62.2,56.5,49.2,66,47,29,29.83,29.73,13,1,13,0.00
2014-9-26,85.0,72.7,60.4,62.1,55.0,42.6,82,56,33,29.79,29.70,16,2,16,0.00
2014-9-27,73.2,62.1,53.7,55.2,51.6,47.6,87,70,42,29.83,29.69,17,2,17,0.00
2014-9-28,73.8,61.7,54.5,55.2,51.8,45.2,91,73,38,29.87,29.76,15,2,15,0.00
2014-9-29,79.5,66.5,56.3,55.2,51.7,45.5,88,62,32,29.87,29.76,13,1,13,0.00
2014-9-30,85.6,69.4,51.7,52.1,46.5,40.6,70,48,22,29.84,29.67,12,1,14,0.00
2014-10-1,85.4,70.1,52.5,50.9,44.7,37.2,73,45,23,29.81,29.67,18,1,18,0.00
2014-10-2,85.5,75.6,67.2,39.3,29.8,25.0,36,19,13,29.95,29.78,20,2,25,0.00
2014-10-3,90.7,78.1,65.6,35.1,27.1,19.5,23,16,10,29.98,29.87,17,1,18,0.00
2014-10-4,94.2,80.8,62.0,39.4,34.1,28.8,34,19,13,29.90,29.74,15,1,16,0.00
2014-10-5,94.3,75.1,56.1,46.3,37.1,30.7,46,28,14,29.90,29.76,11,1,11,0.00
2014-10-6,92.5,74.9,58.7,50.3,40.0,30.8,40,30,16,29.87,29.75,12,1,12,0.00
2014-10-7,87.5,71.7,61.8,59.3,48.0,36.3,74,44,23,29.87,29.77,14,1,18,0.00
2014-10-8,83.9,70.9,59.0,57.9,53.5,45.7,82,56,34,29.79,29.69,18,1,18,0.00
2014-10-9,81.6,66.7,53.7,55.8,48.0,40.9,76,53,29,29.87,29.78,12,1,12,0.00
2014-10-10,85.5,69.9,52.7,57.9,51.1,46.6,85,56,27,29.91,29.81,11,1,11,0.00
2014-10-11,86.7,70.0,53.2,52.3,45.2,37.8,74,46,18,29.91,29.81,17,1,17,0.00
2014-10-12,89.7,70.9,55.9,57.5,47.7,39.0,70,47,20,29.85,29.73,12,1,12,0.00
2014-10-13,85.0,72.9,56.2,47.6,30.7,25.1,69,23,14,29.96,29.82,19,2,19,0.00
2014-10-14,81.4,66.9,51.2,51.1,38.5,26.0,68,37,16,29.93,29.81,12,1,12,0.00
2014-10-15,75.2,63.9,55.2,56.1,53.5,47.6,90,71,45,29.94,29.81,15,2,15,0.00
2014-10-16,75.6,62.3,51.5,55.4,52.4,47.1,92,73,41,29.97,29.82,14,1,14,0.00
2014-10-17,74.4,61.6,51.6,56.4,53.4,46.5,92,77,42,29.94,29.82,13,1,13,0.00
2014-10-18,76.3,64.2,57.1,55.3,53.8,51.3,90,71,47,29.87,29.73,12,1,12,0.00
2014-10-19,79.3,64.1,51.4,55.8,52.4,48.3,91,69,40,29.85,29.75,13,1,13,0.00
2014-10-20,80.3,65.5,52.3,60.1,53.6,44.3,86,67,44,29.86,29.77,10,1,13,0.00
2014-10-21,79.8,65.2,51.5,58.4,49.7,38.1,93,63,23,29.85,29.74,13,1,13,0.00
2014-10-22,84.5,66.3,49.7,49.9,38.0,29.5,77,41,17,29.92,29.79,14,1,14,0.00
2014-10-23,88.8,67.7,50.1,46.6,36.9,29.6,54,35,16,29.97,29.85,10,1,10,0.00
2014-10-24,87.1,70.3,54.3,47.8,39.7,31.5,47,34,20,29.98,29.85,15,1,15,0.00
2014-10-25,82.2,68.9,55.7,52.7,48.0,39.1,74,49,33,29.97,29.87,15,1,15,0.00
2014-10-26,71.7,60.1,49.0,55.2,49.5,42.7,86,70,44,29.95,29.80,12,1,12,0.00
2014-10-27,77.5,62.6,48.1,54.5,49.7,38.3,92,67,26,29.90,29.77,10,1,10,0.00
2014-10-28,78.9,62.6,46.0,44.9,39.1,33.8,79,46,24,29.98,29.88,16,1,16,0.00
2014-10-29,81.0,61.8,48.7,40.0,34.3,31.1,57,38,18,30.02,29.90,23,1,23,0.00
2014-10-30,81.0,65.3,49.2,51.1,39.7,30.7,72,42,22,29.95,29.85,15,1,15,0.00
2014-10-31,67.6,58.4,50.6,54.2,50.9,44.0,90,77,59,29.91,29.78,12,1,12,0.03
2014-11-1,55.7,52.2,47.5,53.0,47.5,43.5,94,84,67,29.94,29.75,13,2,15,0.41
2014-11-2,60.9,50.8,42.9,48.1,44.0,39.8,92,79,55,30.04,29.93,11,0,11,0.01
2014-11-3,66.9,52.1,37.2,44.5,31.8,21.2,92,53,20,30.13,30.02,11,0,11,0.01
2014-11-4,69.8,60.8,42.7,27.2,19.7,12.1,54,21,14,30.18,30.03,22,2,22,0.00
2014-11-5,77.2,69.5,61.0,30.1,23.3,13.2,26,18,15,30.07,29.97,21,3,21,0.00
2014-11-6,78.3,68.7,60.3,34.7,31.4,27.9,31,25,19,30.12,30.03,18,2,18,0.00
2014-11-7,79.5,66.8,51.4,35.7,31.1,24.2,40,27,17,30.11,29.94,15,1,15,0.00
2014-11-8,84.2,70.4,54.1,38.6,34.5,28.3,43,28,18,30.01,29.89,17,1,17,0.00
2014-11-9,85.0,65.9,49.6,45.6,38.8,33.5,71,41,18,29.93,29.73,12,0,12,0.00
2014-11-10,71.7,59.5,50.2,51.2,45.1,36.5,90,62,30,29.82,29.72,14,1,14,0.00
2014-11-11,58.0,54.8,52.1,50.4,47.8,45.9,90,78,66,29.91,29.79,14,1,14,0.00
2014-11-12,63.5,55.5,52.3,50.7,48.6,45.6,91,78,59,29.96,29.85,15,0,15,0.00
2014-11-13,62.4,55.4,51.6,51.9,49.7,48.2,90,81,67,30.03,29.93,10,1,11,0.00
2014-11-14,63.3,56.4,51.5,53.5,51.0,49.1,93,83,62,29.98,29.89,12,1,12,0.00
2014-11-15,65.0,56.6,51.9,53.2,50.6,47.6,94,81,55,30.02,29.91,16,1,16,0.00
2014-11-16,60.0,54.0,44.6,51.1,19.9,4.5,91,36,12,30.17,29.93,24,3,24,0.00
2014-11-17,64.8,57.5,52.3,21.3,14.1,5.9,22,18,15,30.17,30.04,22,4,22,0.00
2014-11-18,66.5,58.3,51.7,23.9,19.2,15.3,29,22,16,30.13,30.03,23,4,23,0.00
2014-11-19,69.3,54.0,37.6,41.8,25.6,16.5,71,37,16,30.13,30.01,14,1,14,0.00
2014-11-20,65.2,52.9,37.9,49.9,39.0,25.6,89,62,34,30.08,29.88,13,1,13,0.00
2014-11-21,63.2,52.6,44.3,50.4,46.3,41.3,94,80,56,30.03,29.84,13,0,13,0.51
2014-11-22,67.1,54.0,40.9,48.1,42.6,38.2,91,68,39,30.08,29.95,13,2,15,0.01
2014-11-23,65.9,55.2,41.8,44.0,26.4,16.2,88,40,16,30.15,29.96,26,2,26,0.00
2014-11-24,67.7,58.5,49.4,24.4,19.1,14.5,28,22,18,30.30,30.11,21,2,21,0.00
2014-11-25,65.8,56.7,42.9,25.5,20.0,15.8,49,25,16,30.37,30.24,17,2,17,0.00
2014-11-26,76.6,61.8,41.7,31.2,26.0,20.3,56,27,18,30.26,30.09,14,1,14,0.00
2014-11-27,77.2,67.0,55.1,30.2,26.3,22.0,29,22,17,30.11,29.98,16,1,16,0.00
2014-11-28,79.7,60.6,43.2,38.2,28.3,23.3,53,32,13,30.01,29.83,9,1,11,0.00
2014-11-29,73.6,57.4,45.6,37.4,29.7,20.6,57,37,19,29.92,29.77,11,1,11,0.00
2014-11-30,59.0,53.7,48.1,51.8,47.3,19.0,90,80,31,30.06,29.81,12,0,12,0.01
2014-12-1,62.9,55.4,45.0,52.7,45.3,40.6,93,71,51,30.15,29.98,15,1,15,0.01
2014-12-2,58.3,54.3,50.3,52.5,46.3,39.0,95,76,50,29.98,29.85,12,0,12,1.24
2014-12-3,56.3,52.5,50.1,53.5,50.8,48.8,96,94,87,30.01,29.90,11,0,11,0.88
2014-12-4,63.4,55.2,46.0,57.3,51.0,43.5,100,87,55,30.05,29.88,12,0,12,0.79
2014-12-5,60.7,52.8,44.7,52.1,48.1,42.8,94,84,68,30.11,30.02,10,1,15,0.01
2014-12-6,67.4,56.7,46.8,54.0,49.1,44.3,95,77,53,30.17,30.07,6,0,6,0.00
2014-12-7,68.8,60.3,53.9,49.8,45.6,43.6,69,59,45,30.17,30.03,16,1,16,0.00
2014-12-8,67.6,58.7,52.8,45.3,41.7,37.4,63,54,37,30.07,29.99,11,0,11,0.00
2014-12-9,71.3,56.5,41.6,43.3,39.1,35.3,81,56,30,30.07,29.94,11,0,11,0.00
2014-12-10,71.5,56.7,44.4,44.3,38.3,33.6,80,53,28,30.03,29.89,10,0,10,0.00
2014-12-11,65.2,55.2,46.3,50.0,43.5,39.8,93,66,44,29.96,29.85,10,0,10,0.00
2014-12-12,55.1,48.9,46.1,50.0,46.4,44.2,95,91,72,30.04,29.81,6,0,11,1.17
2014-12-13,54.1,46.9,39.6,45.9,42.2,36.9,95,84,62,30.11,30.02,12,1,15,0.08
2014-12-14,60.7,46.3,34.8,44.7,36.4,32.7,94,72,39,30.13,30.01,6,0,6,0.00
2014-12-15,54.1,48.4,41.9,38.6,35.8,33.4,81,62,51,30.06,29.95,11,1,11,0.00
2014-12-16,51.9,46.2,39.8,46.3,42.5,34.6,93,87,76,30.02,29.93,4,0,9,0.17
2014-12-17,53.6,48.0,44.0,47.5,44.5,42.3,95,88,68,30.08,29.91,16,0,16,0.31
2014-12-18,55.2,47.0,39.1,45.8,41.4,36.6,95,82,64,30.20,30.06,9,0,9,0.00
2014-12-19,60.6,46.4,35.9,46.7,39.0,33.8,94,77,48,30.24,30.12,10,0,10,0.01
2014-12-20,54.9,46.6,38.7,46.3,42.2,36.0,93,85,70,30.18,30.08,10,0,10,0.00
2014-12-21,64.3,51.5,39.6,51.2,44.2,37.6,95,78,53,30.13,29.99,12,0,12,0.01
2014-12-22,75.4,55.6,42.0,49.5,43.8,38.1,92,69,34,30.04,29.90,11,0,11,0.00
2014-12-23,69.7,62.3,45.6,41.5,37.0,31.9,79,40,31,30.08,29.93,18,2,18,0.00
2014-12-24,67.0,55.9,45.0,41.5,34.1,28.4,75,45,29,30.07,29.76,14,1,14,0.00
2014-12-25,56.0,46.7,31.7,47.0,30.3,15.9,92,57,25,29.92,29.68,22,2,22,0.02
2014-12-26,52.5,41.9,29.4,21.6,18.4,14.8,71,40,27,30.17,29.90,14,1,14,0.00
2014-12-27,49.4,42.4,37.7,17.6,15.4,12.6,42,34,26,30.34,30.17,21,2,21,0.00
2014-12-28,55.1,41.7,32.0,27.1,19.3,13.4,79,43,26,30.28,30.14,10,0,10,0.00
2014-12-29,56.2,42.8,30.7,36.3,30.2,25.5,87,65,33,30.16,30.00,10,0,10,0.00
2014-12-30,46.7,40.7,34.6,41.6,36.6,27.0,91,85,69,30.00,29.87,19,2,19,0.40
2014-12-31,43.6,36.2,27.8,26.9,21.5,16.2,80,56,39,30.07,29.87,16,1,16,0.02
2015-1-1,49.0,35.2,25.3,28.3,22.7,20.2,83,63,35,30.19,30.05,3,0,6,0.00
2015-1-2,52.6,33.3,26.3,28.1,22.8,20.7,83,70,30,30.16,30.06,7,0,7,0.00